This demonstration page uses our WeatherBlox Daily Observations layout. Learn more.

Left ArrowRight Arrow

Hourly Observations for May 17, 2021

Temp ( °F °C ) Dew Point ( °F °C ) Humidity (%) Winds ( mph kmh ) Pressure ( in mb ) Visibility ( mi km ) Precip ( " mm )
12:15 am 00:15 Cloudy 60 15.3 58 14.5 95 95 E 13 20 29.94 1014 7 11 N/A
12:35 am 00:35 Cloudy with Mist and Fog 59 15.2 58 14.5 96 96 E 15 24 29.93 1013 5 8 N/A
12:55 am 00:55 Cloudy with Mist and Fog 59 15.1 58 14.3 95 95 E 13 20 29.93 1013 5 8 N/A
1:15 am 01:15 Cloudy with Mist and Fog 59 15 58 14.2 95 95 E 10 17 29.93 1014 5 8 N/A
1:35 am 01:35 Cloudy with Mist and Fog 59 14.9 58 14.2 96 96 E 8 13 29.93 1014 4 6 N/A
1:55 am 01:55 Cloudy with Mist and Fog 59 14.8 57 14.1 96 96 E 10 17 29.93 1014 3 4 N/A
2:15 am 02:15 Cloudy with Mist and Fog 58 14.6 57 14 96 96 ENE 9 15 29.93 1014 1 2 N/A
2:35 am 02:35 Cloudy with Mist and Fog 58 14.5 57 14 97 97 ENE 9 15 29.94 1014 1 2 N/A
2:55 am 02:55 Cloudy with Mist and Fog 58 14.2 57 13.7 97 97 E 9 15 29.96 1014 3 4 N/A
3:15 am 03:15 Cloudy with Mist and Fog 58 14.2 57 13.7 97 97 E 8 13 29.96 1014 2 3 N/A
3:35 am 03:35 Cloudy with Mist and Fog 58 14.2 57 13.7 97 97 ENE 9 15 29.94 1014 3 4 N/A
3:55 am 03:55 Cloudy with Mist and Fog 57 14 56 13.5 97 97 ENE 12 19 29.94 1014 3 5 N/A
4:15 am 04:15 Cloudy with Mist and Fog 57 14 56 13.5 97 97 NE 12 19 29.93 1013 3 4 N/A
4:35 am 04:35 Cloudy with Mist and Fog 57 14 56 13.5 97 97 NE 12 19 29.93 1013 4 6 N/A
4:55 am 04:55 Cloudy with Mist and Fog 57 14 56 13.4 96 96 NE 13 20 29.94 1014 5 8 N/A
5:15 am 05:15 Cloudy with Mist and Fog 57 13.9 56 13.2 96 96 ENE 10 17 29.94 1014 5 8 N/A
5:35 am 05:35 Cloudy with Mist and Fog 56 13.6 55 13 96 96 ENE 14 22 29.95 1014 3 5 N/A
5:55 am 05:55 Cloudy with Mist and Fog 56 13.5 55 13 97 97 ENE 12 19 29.95 1014 3 5 N/A
6:15 am 06:15 Cloudy with Mist and Fog 56 13.6 56 13.1 97 97 ENE 13 20 29.95 1014 3 5 N/A
6:35 am 06:35 Cloudy with Mist and Fog 56 13.3 55 12.7 96 96 ENE 12 19 29.95 1014 5 8 N/A
6:55 am 06:55 Cloudy with Mist and Fog 56 13.3 55 12.7 96 96 ENE 13 20 29.95 1014 5 8 N/A
7:15 am 07:15 Cloudy with Mist and Fog 56 13.5 55 12.7 95 95 ENE 14 22 29.96 1015 5 8 N/A
7:35 am 07:35 Cloudy 56 13.5 55 12.7 95 95 ENE 12 19 29.96 1015 7 11 N/A
7:55 am 07:55 Cloudy 57 13.8 55 12.7 93 93 ENE 13 20 29.96 1015 10 16 N/A
8:15 am 08:15 Cloudy 57 13.8 55 12.7 93 93 ENE 12 19 29.96 1015 10 16 N/A
8:35 am 08:35 Cloudy 58 14.2 55 12.6 90 90 ENE 14 22 29.97 1015 10 16 N/A
8:55 am 08:55 Cloudy 58 14.2 55 12.7 91 91 E 8 13 29.97 1015 10 16 N/A
9:15 am 09:15 Cloudy 58 14.3 55 12.8 91 91 E 7 11 29.97 1015 10 16 N/A
9:35 am 09:35 Cloudy 58 14.6 55 13 90 90 E 9 15 29.96 1015 10 16 N/A
9:55 am 09:55 Cloudy 58 14.6 56 13.1 91 91 E 8 13 29.97 1015 10 16 N/A
10:15 am 10:15 Cloudy 58 14.7 55 13 90 90 E 10 17 29.97 1015 10 16 N/A
10:35 am 10:35 Cloudy 59 15 56 13.1 89 89 ENE 8 13 29.97 1015 10 16 N/A
10:55 am 10:55 Cloudy 60 15.6 56 13.4 87 87 ENE 10 17 29.96 1015 10 16 N/A
11:15 am 11:15 Cloudy 60 15.6 56 13.2 86 86 E 10 17 29.95 1014 10 16 N/A
11:35 am 11:35 Cloudy 61 16 56 13.3 84 84 E 12 19 29.96 1015 10 16 N/A
11:55 am 11:55 Cloudy 61 16.3 56 13.3 83 83 NE 12 19 29.96 1014 10 16 N/A
12:15 pm 12:15 Cloudy 61 16.3 56 13.2 82 82 E 9 15 29.95 1014 10 16 N/A
12:35 pm 12:35 Cloudy 62 16.5 56 13.3 82 82 E 10 17 29.95 1014 10 16 N/A
12:55 pm 12:55 Cloudy 62 16.5 56 13.1 80 80 E 10 17 29.95 1014 10 16 N/A
1:15 pm 13:15 Cloudy 63 17 56 13.4 79 79 E 9 15 29.94 1014 10 16 N/A
1:35 pm 13:35 Cloudy 63 17.1 56 13.2 78 78 E 8 13 29.94 1014 10 16 N/A
1:55 pm 13:55 Cloudy 63 17.1 56 13.3 78 78 E 8 13 29.94 1014 10 16 N/A
2:15 pm 14:15 Cloudy 64 17.6 56 13.5 77 77 SE 8 13 29.94 1014 10 16 N/A
2:35 pm 14:35 Cloudy 63 17.1 56 13.5 80 80 E 10 17 29.94 1014 10 16 N/A
2:55 pm 14:55 Cloudy 63 17.3 57 13.7 80 80 ENE 8 13 29.94 1014 10 16 N/A
3:15 pm 15:15 Cloudy 65 18.1 57 14 77 77 E 10 17 29.93 1014 10 16 N/A
3:35 pm 15:35 Cloudy 63 17.2 57 13.8 81 81 ENE 9 15 29.93 1014 10 16 N/A
3:55 pm 15:55 Cloudy 64 17.5 57 13.9 80 80 E 8 13 29.93 1013 10 16 N/A
4:15 pm 16:15 Cloudy 63 17.3 57 13.8 80 80 E 7 11 29.93 1014 10 16 N/A
4:35 pm 16:35 Cloudy 64 17.5 57 14 80 80 ENE 8 13 29.93 1013 10 16 N/A
4:55 pm 16:55 Cloudy 64 17.5 56 13.6 78 78 E 6 9 29.93 1013 10 16 N/A
5:15 pm 17:15 Cloudy 64 17.7 57 13.7 78 78 ENE 6 9 29.93 1013 10 16 N/A
5:35 pm 17:35 Cloudy 64 18 56 13.4 75 75 ENE 7 11 29.92 1013 10 16 N/A
5:55 pm 17:55 Cloudy 64 18 57 14.1 78 78 E 7 11 29.92 1013 10 16 N/A
6:15 pm 18:15 Cloudy 64 17.8 56 13.6 77 77 E 6 9 29.93 1013 10 16 N/A
6:35 pm 18:35 Cloudy 64 18 56 13.3 74 74 E 5 7 29.91 1013 10 16 N/A
6:55 pm 18:55 Cloudy 64 18 56 13.4 75 75 E 3 6 29.91 1013 10 16 N/A
7:15 pm 19:15 Cloudy 64 18 56 13.6 76 76 E 5 7 29.91 1013 10 16 N/A
7:35 pm 19:35 Cloudy 64 17.8 56 13.5 76 76 ENE 6 9 29.91 1013 10 16 N/A
7:55 pm 19:55 Cloudy 64 17.5 56 13.5 78 78 E 8 13 29.91 1013 10 16 N/A
8:15 pm 20:15 Cloudy 63 17.1 57 13.9 82 82 ENE 8 13 29.91 1013 10 16 N/A
8:35 pm 20:35 Cloudy 62 16.5 58 14.2 86 86 ENE 8 13 29.92 1013 10 16 N/A
8:55 pm 20:55 Mostly Cloudy 61 16.1 58 14.5 90 90 ENE 10 17 29.92 1013 10 16 N/A
9:15 pm 21:15 Partly Cloudy 60 15.5 58 14.5 94 94 ENE 12 19 29.92 1013 7 11 N/A
9:35 pm 21:35 Partly Cloudy with Mist and Fog 59 15.1 58 14.2 94 94 NE 9 15 29.92 1013 5 8 N/A
9:55 pm 21:55 Mostly Cloudy with Mist and Fog 59 15.1 58 14.3 95 95 ENE 9 15 29.93 1013 4 6 N/A
10:15 pm 22:15 Cloudy with Mist and Fog 59 14.8 57 14.1 96 96 ENE 5 7 29.94 1014 3 5 N/A
10:35 pm 22:35 Cloudy with Mist and Fog 59 14.8 58 14.2 96 96 NE 7 11 29.94 1014 3 4 N/A
10:55 pm 22:55 Cloudy with Mist and Fog 58 14.5 57 14 97 97 NE 7 11 29.94 1014 3 4 N/A
11:15 pm 23:15 Cloudy with Mist and Fog 58 14.6 57 14.1 97 97 NE 6 9 29.95 1014 3 4 N/A
11:35 pm 23:35 Cloudy with Mist and Fog 58 14.7 58 14.2 97 97 NE 6 9 29.96 1015 3 4 N/A
11:55 pm 23:55 Cloudy with Mist and Fog 59 14.8 58 14.3 97 97 ENE 7 11 29.96 1015 3 4 N/A

Powered by AerisWeather